Regional Weather Roundup
Issued by NWS

Home | Current Version | Previous Version | Graphics & Text | Print | Product List | Glossary On
Versions: 1 2 3 4 5 6 7 8 9 10 11 12 13 14 15 16 17 18 19 20 21 22 23 24 25 26 27 28 29 30 31 32 33 34 35 36 37 38 39 40 41 42 43 44 45 46 47 48 49 50
000
ASUS43 KTOP 251908
RWRKS

WEATHER ROUNDUP FOR KANSAS
NATIONAL WEATHER SERVICE GOODLAND KS
200 PM CDT MON MAY 25 2015

NOTE:  "FAIR" INDICATES FEW OR NO CLOUDS BELOW 12,000 FEET WITH NO
SIGNIFICANT WEATHER AND/OR OBSTRUCTIONS TO VISIBILITY.

KSZ001>006-013>018-027>032-041>047-252000-
NORTHWEST KANSAS

CITY           SKY/WX    TMP DP  RH WIND       PRES   REMARKS
GOODLAND       CLOUDY    66  48  52 W6        29.88S
HAYS           CLOUDY    68  55  64 S7        29.83S
HILL CITY      SUNNY     73  57  57 SW8       29.81F
RUSSELL        PTSUNNY   73  61  65 S13       29.81S
$$

KSZ061>065-074>080-084>089-252000-
SOUTHWEST KANSAS

CITY           SKY/WX    TMP DP  RH WIND       PRES   REMARKS
DODGE CITY     MOSUNNY   72  57  59 VRB3      29.83F
ELKHART          N/A     72  49  44 NE2         N/A
GARDEN CITY    MOSUNNY   70  51  51 W5        29.84S
GREAT BEND     PTSUNNY   72  63  73 W9        29.80F
LIBERAL        PTSUNNY   73  54  49 S6        29.88R
PRATT          PTSUNNY   77  59  53 S15G24    29.82S
$$

KSZ066>073-081>083-090>101-252000-
SOUTHEAST KANSAS

CITY           SKY/WX    TMP DP  RH WIND       PRES   REMARKS
CHANUTE        PTSUNNY   79  67  66 S21       29.89F
COFFEYVILLE    MOSUNNY   79  68  69 S16G24    29.90F
HUTCHINSON     PTSUNNY   81  66  60 S20G28    29.80F
MEDICINE LODGE   N/A     78  64  61 S18G29    29.80R
NEWTON         CLOUDY    75  64  69 S17G26    29.84F
PARSONS        MOSUNNY   80  69  69 S12G24    29.91F
WICHITA INTL   PTSUNNY   79  68  69 S24G33    29.80F
WICHITA JABRA  PTSUNNY   77  67  71 S17G29    29.82F
WICHITA MCCONL PTSUNNY   79  69  70 S23G30    29.82F
WINFIELD       PTSUNNY   78  67  68 S21G26    29.86F
$$

KSZ007>012-019>026-033>040-048>060-102>105-252000-
NORTHEAST KANSAS

CITY           SKY/WX    TMP DP  RH WIND       PRES   REMARKS
CONCORDIA      PTSUNNY   74  63  68 S15       29.81F
EMPORIA        PTSUNNY   79  66  64 S22G33    29.83F
LAWRENCE       CLOUDY    76  65  68 S18       29.87F
MANHATTAN      CLOUDY    76  66  71 S12       29.81F
OLATHE IND     CLOUDY    75  66  73 S18G24    29.90F
OLATHE EXE     CLOUDY    74  66  76 S14G25    29.89F
SALINA         PTSUNNY   78  66  66 S12       29.80F
TOPEKA BILLARD CLOUDY    76  66  71 S10G20    29.85F
TOPEKA FORBES  CLOUDY    77  66  68 S18       29.84F
$$


USA.gov is the U.S. government's official web portal to all federal, state and local government web resources and services.